DAL2464 KBOS-KATL

Flight info

Callsign DAL2464
Flight time 2h 22m
Altitude 34000
Route BLZZR6 BLZZR BAF Q448 PTW J48 MOL FLASK OZZZI2
Aircraft A321/M-SDE3FGHIRWY/LB1

Departure

Time 2026-05-03 22:23
Airport Boston Logan International Airport (KBOS)

Arrival

Time 2026-05-04 00:46
Airport Hartsfield Jackson Atlanta International Airport (KATL)
Time Latitude Longitude Altitude Speed Heading
2026-05-03 21:50 42.36187 -71.02439 25 ft 0 kts 280°
2026-05-03 22:03 42.36183 -71.02410 15 ft 4 kts 282°
2026-05-03 22:03 42.36179 -71.02380 34 ft 4 kts 262°
2026-05-03 22:04 42.36190 -71.02354 29 ft 4 kts 204°
2026-05-03 22:04 42.36212 -71.02346 30 ft 2 kts 184°
2026-05-03 22:04 42.36190 -71.02348 29 ft 2 kts 184°
2026-05-03 22:04 42.36188 -71.02349 29 ft 0 kts 184°
2026-05-03 22:09 42.36187 -71.02349 25 ft 1 kts 184°
2026-05-03 22:09 42.36160 -71.02351 27 ft 6 kts 184°
2026-05-03 22:09 42.36115 -71.02342 29 ft 8 kts 158°
2026-05-03 22:10 42.36026 -71.02244 30 ft 8 kts 121°
2026-05-03 22:10 42.35985 -71.02151 27 ft 15 kts 121°
2026-05-03 22:10 42.35935 -71.02040 28 ft 13 kts 121°
2026-05-03 22:10 42.35891 -71.01940 25 ft 12 kts 121°
2026-05-03 22:11 42.35856 -71.01845 26 ft 11 kts 109°
2026-05-03 22:11 42.35839 -71.01750 27 ft 10 kts 102°
2026-05-03 22:11 42.35827 -71.01662 27 ft 9 kts 101°
2026-05-03 22:11 42.35829 -71.01588 25 ft 7 kts 54°
2026-05-03 22:12 42.35866 -71.01555 28 ft 6 kts 29°
2026-05-03 22:12 42.35876 -71.01492 27 ft 12 kts 103°
2026-05-03 22:12 42.35857 -71.01372 25 ft 13 kts 98°
2026-05-03 22:12 42.35846 -71.01261 29 ft 11 kts 98°
2026-05-03 22:13 42.35834 -71.01142 25 ft 14 kts 97°
2026-05-03 22:13 42.35853 -71.01019 26 ft 13 kts 56°
2026-05-03 22:13 42.35905 -71.00935 25 ft 11 kts 49°
2026-05-03 22:13 42.35962 -71.00847 27 ft 13 kts 51°
2026-05-03 22:14 42.35971 -71.00750 27 ft 10 kts 107°
2026-05-03 22:14 42.35947 -71.00661 31 ft 11 kts 110°
2026-05-03 22:14 42.35924 -71.00572 25 ft 9 kts 109°
2026-05-03 22:14 42.35903 -71.00493 26 ft 8 kts 109°
2026-05-03 22:15 42.35884 -71.00421 28 ft 8 kts 109°
2026-05-03 22:15 42.35882 -71.00353 26 ft 7 kts 74°
2026-05-03 22:15 42.35891 -71.00310 30 ft 0 kts 76°
2026-05-03 22:16 42.35892 -71.00305 30 ft 3 kts 76°
2026-05-03 22:16 42.35902 -71.00251 25 ft 6 kts 76°
2026-05-03 22:17 42.35913 -71.00190 25 ft 8 kts 77°
2026-05-03 22:17 42.35927 -71.00110 25 ft 10 kts 77°
2026-05-03 22:17 42.35912 -71.00025 28 ft 9 kts 130°
2026-05-03 22:17 42.35866 -70.99963 29 ft 11 kts 135°
2026-05-03 22:18 42.35804 -70.99880 26 ft 14 kts 135°
2026-05-03 22:18 42.35741 -70.99796 29 ft 12 kts 135°
2026-05-03 22:18 42.35685 -70.99720 25 ft 11 kts 135°
2026-05-03 22:18 42.35634 -70.99652 25 ft 10 kts 135°
2026-05-03 22:19 42.35595 -70.99601 26 ft 0 kts 135°
2026-05-03 22:19 42.35595 -70.99600 26 ft 1 kts 135°
2026-05-03 22:20 42.35569 -70.99565 29 ft 7 kts 135°
2026-05-03 22:20 42.35535 -70.99520 25 ft 6 kts 135°
2026-05-03 22:20 42.35515 -70.99494 25 ft 6 kts 135°
2026-05-03 22:20 42.35486 -70.99450 30 ft 8 kts 119°
2026-05-03 22:21 42.35493 -70.99379 27 ft 7 kts 74°
2026-05-03 22:21 42.35506 -70.99312 27 ft 11 kts 76°
2026-05-03 22:21 42.35539 -70.99263 27 ft 6 kts 324°
2026-05-03 22:21 42.35553 -70.99282 25 ft 0 kts 314°
2026-05-03 22:22 42.35555 -70.99285 25 ft 3 kts 314°
2026-05-03 22:22 42.35689 -70.99467 25 ft 61 kts 315°
2026-05-03 22:22 42.36136 -71.00064 23 ft 118 kts 315°
2026-05-03 22:23 42.36824 -71.00997 76 ft 157 kts 312°
2026-05-03 22:23 42.37598 -71.02020 683 ft 154 kts 314°
2026-05-03 22:23 42.38333 -71.03060 1364 ft 152 kts 303°
2026-05-03 22:23 42.38880 -71.04300 1923 ft 158 kts 300°
2026-05-03 22:24 42.39461 -71.05648 2095 ft 175 kts 300°
2026-05-03 22:24 42.40106 -71.07149 2218 ft 195 kts 300°
2026-05-03 22:24 42.40801 -71.08854 2387 ft 219 kts 292°
2026-05-03 22:24 42.40942 -71.10967 2877 ft 237 kts 261°
2026-05-03 22:25 42.40409 -71.13118 3574 ft 245 kts 255°
2026-05-03 22:25 42.39814 -71.15291 4372 ft 247 kts 254°
2026-05-03 22:25 42.39207 -71.17482 5157 ft 250 kts 254°
2026-05-03 22:25 42.38594 -71.19697 5904 ft 253 kts 253°
2026-05-03 22:26 42.37986 -71.21912 6626 ft 256 kts 254°
2026-05-03 22:26 42.37362 -71.24187 7332 ft 259 kts 254°
2026-05-03 22:26 42.36744 -71.26489 8038 ft 262 kts 255°
2026-05-03 22:26 42.36128 -71.28824 8737 ft 265 kts 254°
2026-05-03 22:27 42.35486 -71.31174 9452 ft 268 kts 253°
2026-05-03 22:27 42.34809 -71.33548 10113 ft 272 kts 253°
2026-05-03 22:27 42.34083 -71.36025 10297 ft 294 kts 252°
2026-05-03 22:27 42.33292 -71.38683 10430 ft 315 kts 252°
2026-05-03 22:28 42.32442 -71.41490 10776 ft 327 kts 252°
2026-05-03 22:28 42.31562 -71.44350 11367 ft 332 kts 251°
2026-05-03 22:28 42.30660 -71.47244 11995 ft 335 kts 251°
2026-05-03 22:28 42.29765 -71.50116 12643 ft 337 kts 252°
2026-05-03 22:29 42.28852 -71.53054 13281 ft 340 kts 252°
2026-05-03 22:29 42.27936 -71.56012 13888 ft 343 kts 252°
2026-05-03 22:29 42.27014 -71.59003 14448 ft 346 kts 252°
2026-05-03 22:29 42.26085 -71.62013 15000 ft 349 kts 252°
2026-05-03 22:30 42.25146 -71.65045 15564 ft 351 kts 252°
2026-05-03 22:30 42.24195 -71.68102 16127 ft 354 kts 252°
2026-05-03 22:30 42.23238 -71.71174 16686 ft 356 kts 252°
2026-05-03 22:30 42.22297 -71.74283 17208 ft 357 kts 255°
2026-05-03 22:31 42.21688 -71.77516 17746 ft 355 kts 265°
2026-05-03 22:31 42.21472 -71.80830 18256 ft 355 kts 270°
2026-05-03 22:31 42.21303 -71.84168 18722 ft 358 kts 270°
2026-05-03 22:31 42.21124 -71.87532 19191 ft 360 kts 269°
2026-05-03 22:32 42.20942 -71.90860 19645 ft 362 kts 269°
2026-05-03 22:32 42.20751 -71.94258 20069 ft 364 kts 269°
2026-05-03 22:32 42.20558 -71.97682 20516 ft 367 kts 269°
2026-05-03 22:32 42.20365 -72.01114 20970 ft 369 kts 269°
2026-05-03 22:33 42.20169 -72.04576 21417 ft 370 kts 269°
2026-05-03 22:33 42.19974 -72.08049 21868 ft 372 kts 269°
2026-05-03 22:33 42.19776 -72.11542 22306 ft 374 kts 269°
2026-05-03 22:33 42.19576 -72.15055 22732 ft 376 kts 269°
2026-05-03 22:34 42.19372 -72.18582 23158 ft 378 kts 269°
2026-05-03 22:34 42.19166 -72.22132 23551 ft 381 kts 269°
2026-05-03 22:34 42.18957 -72.25699 23874 ft 382 kts 269°
2026-05-03 22:34 42.18745 -72.29279 24231 ft 384 kts 269°
2026-05-03 22:35 42.18533 -72.32876 24565 ft 386 kts 269°
2026-05-03 22:35 42.18323 -72.36450 24891 ft 388 kts 269°
2026-05-03 22:35 42.18110 -72.40093 25211 ft 390 kts 269°
2026-05-03 22:35 42.17897 -72.43747 25531 ft 392 kts 269°
2026-05-03 22:36 42.17682 -72.47419 25844 ft 394 kts 268°
2026-05-03 22:36 42.17464 -72.51107 26155 ft 396 kts 268°
2026-05-03 22:36 42.17238 -72.54824 26462 ft 398 kts 268°
2026-05-03 22:36 42.17008 -72.58549 26761 ft 400 kts 268°
2026-05-03 22:37 42.16773 -72.62289 27079 ft 401 kts 268°
2026-05-03 22:37 42.16524 -72.66035 27420 ft 402 kts 265°
2026-05-03 22:37 42.15936 -72.69742 27716 ft 408 kts 256°
2026-05-03 22:37 42.14859 -72.73313 27999 ft 415 kts 246°
2026-05-03 22:38 42.13296 -72.76617 28267 ft 422 kts 237°
2026-05-03 22:38 42.11463 -72.79724 28527 ft 424 kts 236°
2026-05-03 22:38 42.09652 -72.82797 28822 ft 425 kts 236°
2026-05-03 22:38 42.07816 -72.85930 29090 ft 426 kts 237°
2026-05-03 22:39 42.05980 -72.89072 29356 ft 428 kts 237°
2026-05-03 22:39 42.04134 -72.92227 29635 ft 429 kts 236°
2026-05-03 22:39 42.02285 -72.95381 29919 ft 429 kts 236°
2026-05-03 22:39 42.00433 -72.98539 30174 ft 430 kts 236°
2026-05-03 22:40 41.98580 -73.01693 30454 ft 430 kts 236°
2026-05-03 22:40 41.96680 -73.04802 30731 ft 432 kts 231°
2026-05-03 22:40 41.94468 -73.07558 31011 ft 436 kts 223°
2026-05-03 22:40 41.91944 -73.09863 31321 ft 440 kts 217°
2026-05-03 22:41 41.89350 -73.12034 31619 ft 439 kts 217°
2026-05-03 22:41 41.86762 -73.14205 31915 ft 438 kts 217°
2026-05-03 22:41 41.84180 -73.16373 32203 ft 438 kts 217°
2026-05-03 22:41 41.81631 -73.18512 32475 ft 437 kts 217°
2026-05-03 22:42 41.79050 -73.20674 32755 ft 437 kts 217°
2026-05-03 22:42 41.76473 -73.22828 33024 ft 436 kts 217°
2026-05-03 22:42 41.73902 -73.24978 33301 ft 435 kts 217°
2026-05-03 22:42 41.71335 -73.27126 33570 ft 434 kts 217°
2026-05-03 22:43 41.68777 -73.29269 33817 ft 434 kts 217°
2026-05-03 22:43 41.64157 -73.34262 33919 ft 420 kts 233°
2026-05-03 22:44 41.60346 -73.40166 33916 ft 419 kts 233°
2026-05-03 22:44 41.56524 -73.46038 33915 ft 419 kts 233°
2026-05-03 22:45 41.52713 -73.51862 33905 ft 419 kts 233°
2026-05-03 22:45 41.48888 -73.57720 33906 ft 419 kts 233°
2026-05-03 22:46 41.45056 -73.63585 33908 ft 419 kts 233°
2026-05-03 22:46 41.41220 -73.69435 33891 ft 419 kts 233°
2026-05-03 22:47 41.37384 -73.75275 33892 ft 419 kts 233°
2026-05-03 22:47 41.33543 -73.81115 33896 ft 419 kts 232°
2026-05-03 22:48 41.29673 -73.86858 33900 ft 420 kts 232°
2026-05-03 22:48 41.25743 -73.92606 33883 ft 420 kts 232°
2026-05-03 22:49 41.21823 -73.98350 33913 ft 419 kts 232°
2026-05-03 22:49 41.17924 -74.04087 33935 ft 418 kts 232°
2026-05-03 22:50 41.14027 -74.09810 33952 ft 417 kts 233°
2026-05-03 22:50 41.10290 -74.15666 33951 ft 415 kts 235°
2026-05-03 22:51 41.06696 -74.21636 33942 ft 414 kts 236°
2026-05-03 22:51 41.03091 -74.27579 33944 ft 413 kts 235°
2026-05-03 22:52 40.99456 -74.33473 33942 ft 413 kts 235°
2026-05-03 22:52 40.95797 -74.39339 33945 ft 413 kts 235°
2026-05-03 22:53 40.92140 -74.45188 33926 ft 412 kts 235°
2026-05-03 22:53 40.88514 -74.50993 33934 ft 411 kts 235°
2026-05-03 22:54 40.84881 -74.56841 33956 ft 411 kts 235°
2026-05-03 22:54 40.81251 -74.62656 33954 ft 410 kts 235°
2026-05-03 22:55 40.77607 -74.68463 33938 ft 410 kts 235°
2026-05-03 22:55 40.73965 -74.74266 33914 ft 410 kts 235°
2026-05-03 22:56 40.70326 -74.80041 33931 ft 409 kts 235°
2026-05-03 22:56 40.66690 -74.85802 33938 ft 409 kts 235°
2026-05-03 22:57 40.63084 -74.91521 33941 ft 408 kts 236°
2026-05-03 22:57 40.59458 -74.97269 33947 ft 408 kts 235°
2026-05-03 22:58 40.55812 -75.03019 33949 ft 408 kts 236°
2026-05-03 22:58 40.52212 -75.08725 33686 ft 385 kts 234°
2026-05-03 22:58 40.50603 -75.11236 34992 ft 342 kts 234°
2026-05-03 22:59 40.49097 -75.13560 35386 ft 336 kts 234°
2026-05-03 22:59 40.46192 -75.18169 34715 ft 327 kts 235°
2026-05-03 22:59 40.44758 -75.20487 34172 ft 326 kts 235°
2026-05-03 23:00 40.43333 -75.22779 34470 ft 326 kts 237°
2026-05-03 23:00 40.41870 -75.25132 33506 ft 331 kts 234°
2026-05-03 23:00 40.40413 -75.27445 33660 ft 327 kts 234°
2026-05-03 23:01 40.37512 -75.32020 33920 ft 326 kts 234°
2026-05-03 23:01 40.34600 -75.36590 33980 ft 327 kts 234°
2026-05-03 23:02 40.31686 -75.41167 33985 ft 327 kts 234°
2026-05-03 23:02 40.28775 -75.45748 34023 ft 327 kts 234°
2026-05-03 23:03 40.25862 -75.50320 34024 ft 327 kts 234°
2026-05-03 23:03 40.22946 -75.54891 34011 ft 327 kts 234°
2026-05-03 23:04 40.20366 -75.59712 33980 ft 325 kts 239°
2026-05-03 23:04 40.17878 -75.64676 33979 ft 326 kts 239°
2026-05-03 23:05 40.15385 -75.69650 33991 ft 327 kts 239°
2026-05-03 23:05 40.12876 -75.74630 33989 ft 328 kts 239°
2026-05-03 23:06 40.10355 -75.79608 34038 ft 329 kts 239°
2026-05-03 23:06 40.07836 -75.84596 34027 ft 329 kts 239°
2026-05-03 23:07 40.05316 -75.89588 34031 ft 329 kts 239°
2026-05-03 23:07 40.02807 -75.94539 33965 ft 329 kts 239°
2026-05-03 23:08 40.00274 -75.99521 33979 ft 329 kts 239°
2026-05-03 23:08 39.97732 -76.04512 33979 ft 330 kts 239°
2026-05-03 23:09 39.95184 -76.09506 33988 ft 331 kts 239°
2026-05-03 23:09 39.92632 -76.14513 34023 ft 331 kts 239°
2026-05-03 23:10 39.90506 -76.18671 34019 ft 332 kts 239°
2026-05-03 23:10 39.87531 -76.24484 34014 ft 332 kts 239°
2026-05-03 23:11 39.84964 -76.29488 34015 ft 333 kts 239°
2026-05-03 23:11 39.82808 -76.33688 34015 ft 333 kts 239°
2026-05-03 23:12 39.80249 -76.38666 34024 ft 333 kts 239°
2026-05-03 23:12 39.77669 -76.43678 34012 ft 334 kts 239°
2026-05-03 23:13 39.75081 -76.48695 34025 ft 334 kts 239°
2026-05-03 23:13 39.72482 -76.53724 34046 ft 335 kts 239°
2026-05-03 23:14 39.69883 -76.58756 34042 ft 336 kts 239°
2026-05-03 23:14 39.67278 -76.63786 34003 ft 336 kts 239°
2026-05-03 23:15 39.64663 -76.68811 34017 ft 336 kts 239°
2026-05-03 23:15 39.62061 -76.73803 34020 ft 336 kts 239°
2026-05-03 23:16 39.59435 -76.78839 34025 ft 337 kts 239°
2026-05-03 23:16 39.56809 -76.83876 34032 ft 337 kts 239°
2026-05-03 23:17 39.54181 -76.88910 34056 ft 338 kts 238°
2026-05-03 23:17 39.51538 -76.93948 34041 ft 338 kts 238°
2026-05-03 23:18 39.48656 -76.98727 33998 ft 344 kts 228°
2026-05-03 23:18 39.44926 -77.02682 34006 ft 347 kts 226°
2026-05-03 23:19 39.41178 -77.06630 34023 ft 347 kts 226°
2026-05-03 23:19 39.37427 -77.10581 34037 ft 348 kts 226°
2026-05-03 23:20 39.33667 -77.14516 34038 ft 348 kts 226°
2026-05-03 23:20 39.29897 -77.18466 33996 ft 349 kts 226°
2026-05-03 23:21 39.26156 -77.22391 34013 ft 350 kts 226°
2026-05-03 23:21 39.22369 -77.26352 34034 ft 351 kts 226°
2026-05-03 23:22 39.16672 -77.32294 34039 ft 352 kts 226°
2026-05-03 23:22 39.12867 -77.36258 34038 ft 352 kts 226°
2026-05-03 23:23 39.09046 -77.40229 34021 ft 354 kts 226°
2026-05-03 23:23 39.05212 -77.44218 34033 ft 354 kts 226°
2026-05-03 23:24 39.01375 -77.48197 34026 ft 354 kts 226°
2026-05-03 23:24 38.97554 -77.52152 34027 ft 355 kts 226°
2026-05-03 23:25 38.93707 -77.56131 34032 ft 355 kts 226°
2026-05-03 23:25 38.89855 -77.60111 34010 ft 355 kts 226°
2026-05-03 23:26 38.85997 -77.64086 34026 ft 356 kts 226°
2026-05-03 23:26 38.82128 -77.68067 34039 ft 356 kts 226°
2026-05-03 23:27 38.78291 -77.72020 34043 ft 356 kts 226°
2026-05-03 23:27 38.74422 -77.75995 34042 ft 356 kts 226°
2026-05-03 23:28 38.70547 -77.79967 33996 ft 357 kts 226°
2026-05-03 23:28 38.66658 -77.83949 34023 ft 358 kts 226°
2026-05-03 23:29 38.63087 -77.88280 34030 ft 349 kts 238°
2026-05-03 23:29 38.60214 -77.93221 34040 ft 349 kts 238°
2026-05-03 23:30 38.57300 -77.98186 34054 ft 349 kts 238°
2026-05-03 23:30 38.54378 -78.03152 34049 ft 350 kts 238°
2026-05-03 23:31 38.51450 -78.08124 34056 ft 350 kts 238°
2026-05-03 23:31 38.48518 -78.13100 34011 ft 351 kts 238°
2026-05-03 23:32 38.45576 -78.18079 34008 ft 352 kts 238°
2026-05-03 23:32 38.42627 -78.23062 34016 ft 352 kts 238°
2026-05-03 23:33 38.39673 -78.28053 34020 ft 352 kts 238°
2026-05-03 23:33 38.36708 -78.33044 34021 ft 353 kts 238°
2026-05-03 23:34 38.33761 -78.38003 34025 ft 353 kts 238°
2026-05-03 23:34 38.30793 -78.42993 33998 ft 353 kts 237°
2026-05-03 23:35 38.27805 -78.47998 34021 ft 355 kts 237°
2026-05-03 23:35 38.24813 -78.53008 34026 ft 355 kts 237°
2026-05-03 23:36 38.21822 -78.58015 34033 ft 356 kts 238°
2026-05-03 23:36 38.18823 -78.63025 34029 ft 356 kts 237°
2026-05-03 23:37 38.15837 -78.68004 34041 ft 356 kts 238°
2026-05-03 23:37 38.12803 -78.73073 34035 ft 367 kts 240°
2026-05-03 23:38 38.09680 -78.78273 34044 ft 372 kts 239°
2026-05-03 23:38 38.06528 -78.83488 34046 ft 372 kts 239°
2026-05-03 23:39 38.03368 -78.88704 34046 ft 372 kts 239°
2026-05-03 23:39 38.00219 -78.93922 34043 ft 372 kts 239°
2026-05-03 23:40 37.97085 -78.99100 34043 ft 372 kts 239°
2026-05-03 23:40 37.93929 -79.04308 34044 ft 372 kts 239°
2026-05-03 23:41 37.90767 -79.09513 34038 ft 373 kts 239°
2026-05-03 23:41 37.87430 -79.14582 34036 ft 376 kts 236°
2026-05-03 23:42 37.83858 -79.19461 34035 ft 378 kts 234°
2026-05-03 23:42 37.80275 -79.24316 34022 ft 377 kts 235°
2026-05-03 23:43 37.76732 -79.29204 34023 ft 377 kts 235°
2026-05-03 23:43 37.73198 -79.34106 34025 ft 377 kts 235°
2026-05-03 23:44 37.69667 -79.39007 34018 ft 377 kts 235°
2026-05-03 23:44 37.66142 -79.43894 34029 ft 379 kts 234°
2026-05-03 23:45 37.62563 -79.48832 34031 ft 379 kts 234°
2026-05-03 23:45 37.59028 -79.53709 34039 ft 379 kts 234°
2026-05-03 23:46 37.55471 -79.58612 34040 ft 379 kts 234°
2026-05-03 23:46 37.51908 -79.63511 34047 ft 379 kts 234°
2026-05-03 23:47 37.48337 -79.68410 34039 ft 381 kts 234°
2026-05-03 23:47 37.44747 -79.73320 34061 ft 381 kts 234°
2026-05-03 23:48 37.41159 -79.78220 34056 ft 381 kts 234°
2026-05-03 23:48 37.37562 -79.83129 34052 ft 381 kts 234°
2026-05-03 23:49 37.33968 -79.88029 34052 ft 381 kts 234°
2026-05-03 23:49 37.30372 -79.92931 34059 ft 382 kts 234°
2026-05-03 23:50 37.27377 -79.96999 34039 ft 382 kts 233°
2026-05-03 23:50 37.23174 -80.02716 34067 ft 383 kts 234°
2026-05-03 23:51 37.19557 -80.07636 34075 ft 383 kts 233°
2026-05-03 23:51 37.15924 -80.12538 34077 ft 383 kts 233°
2026-05-03 23:52 37.12300 -80.17444 34082 ft 383 kts 233°
2026-05-03 23:52 37.08670 -80.22340 34072 ft 384 kts 233°
2026-05-03 23:53 37.05024 -80.27236 34057 ft 385 kts 233°
2026-05-03 23:53 37.01372 -80.32143 34064 ft 385 kts 233°
2026-05-03 23:54 36.97679 -80.36953 34067 ft 386 kts 232°
2026-05-03 23:54 36.93906 -80.41747 34064 ft 386 kts 232°
2026-05-03 23:55 36.90130 -80.46542 34060 ft 386 kts 232°
2026-05-03 23:55 36.86371 -80.51335 34058 ft 386 kts 232°
2026-05-03 23:56 36.82607 -80.56137 34066 ft 388 kts 232°
2026-05-03 23:56 36.78828 -80.60952 34059 ft 388 kts 232°
2026-05-03 23:57 36.75035 -80.65768 34072 ft 389 kts 232°
2026-05-03 23:57 36.71247 -80.70578 34066 ft 388 kts 232°
2026-05-03 23:58 36.67479 -80.75359 34065 ft 389 kts 231°
2026-05-03 23:58 36.64314 -80.79358 34079 ft 389 kts 231°
2026-05-03 23:59 36.60508 -80.84166 34059 ft 391 kts 231°
2026-05-03 23:59 36.56056 -80.89781 34049 ft 391 kts 231°
2026-05-04 00:00 36.52847 -80.93820 34057 ft 392 kts 231°
2026-05-04 00:00 36.49015 -80.98643 34067 ft 392 kts 231°
2026-05-04 00:01 36.45201 -81.03436 34076 ft 392 kts 231°
2026-05-04 00:01 36.41362 -81.08250 34047 ft 392 kts 231°
2026-05-04 00:02 36.37523 -81.13061 34064 ft 393 kts 231°
2026-05-04 00:02 36.33672 -81.17877 34077 ft 393 kts 230°
2026-05-04 00:03 36.29817 -81.22685 34081 ft 393 kts 231°
2026-05-04 00:03 36.25960 -81.27502 34083 ft 393 kts 230°
2026-05-04 00:04 36.22104 -81.32315 34078 ft 394 kts 231°
2026-05-04 00:04 36.18258 -81.37098 34026 ft 395 kts 230°
2026-05-04 00:05 36.14368 -81.41937 34049 ft 397 kts 230°
2026-05-04 00:05 36.10466 -81.46781 34039 ft 397 kts 230°
2026-05-04 00:06 36.06566 -81.51615 34038 ft 397 kts 230°
2026-05-04 00:06 36.02663 -81.56451 34030 ft 397 kts 230°
2026-05-04 00:07 35.98754 -81.61290 34030 ft 397 kts 230°
2026-05-04 00:07 35.94839 -81.66118 34007 ft 397 kts 230°
2026-05-04 00:08 35.90924 -81.70946 34016 ft 398 kts 230°
2026-05-04 00:08 35.86995 -81.75778 34019 ft 399 kts 230°
2026-05-04 00:09 35.83052 -81.80629 34067 ft 400 kts 230°
2026-05-04 00:09 35.79123 -81.85448 34063 ft 401 kts 230°
2026-05-04 00:10 35.75136 -81.90272 34059 ft 402 kts 229°
2026-05-04 00:10 35.71118 -81.95066 34052 ft 402 kts 229°
2026-05-04 00:11 35.67118 -81.99822 34059 ft 402 kts 229°
2026-05-04 00:11 35.63102 -82.04609 34064 ft 402 kts 229°
2026-05-04 00:12 35.59082 -82.09395 34065 ft 402 kts 229°
2026-05-04 00:12 35.55060 -82.14184 34077 ft 402 kts 229°
2026-05-04 00:13 35.51042 -82.18964 34064 ft 402 kts 229°
2026-05-04 00:13 35.47018 -82.23742 34034 ft 402 kts 229°
2026-05-04 00:14 35.43016 -82.28487 34051 ft 404 kts 229°
2026-05-04 00:14 35.39024 -82.33341 34052 ft 403 kts 230°
2026-05-04 00:15 35.35102 -82.38259 34054 ft 403 kts 230°
2026-05-04 00:15 35.31195 -82.43144 34053 ft 403 kts 230°
2026-05-04 00:16 35.27255 -82.48034 34056 ft 404 kts 230°
2026-05-04 00:16 35.23288 -82.52929 34052 ft 405 kts 230°
2026-05-04 00:17 35.19320 -82.57837 34053 ft 407 kts 230°
2026-05-04 00:17 35.15335 -82.62751 34044 ft 407 kts 229°
2026-05-04 00:18 35.11283 -82.67602 34051 ft 408 kts 229°
2026-05-04 00:18 35.07195 -82.72413 34010 ft 407 kts 228°
2026-05-04 00:19 35.05156 -82.74814 33341 ft 408 kts 228°
2026-05-04 00:19 35.03116 -82.77226 32635 ft 408 kts 228°
2026-05-04 00:19 35.01086 -82.79630 32060 ft 406 kts 228°
2026-05-04 00:19 34.99063 -82.82027 31510 ft 405 kts 228°
2026-05-04 00:20 34.97049 -82.84409 30998 ft 402 kts 228°
2026-05-04 00:20 34.95047 -82.86771 30491 ft 399 kts 228°
2026-05-04 00:20 34.93059 -82.89113 29972 ft 396 kts 228°
2026-05-04 00:20 34.91079 -82.91432 29425 ft 393 kts 227°
2026-05-04 00:21 34.89107 -82.93720 28895 ft 390 kts 227°
2026-05-04 00:21 34.87172 -82.95955 28386 ft 387 kts 227°
2026-05-04 00:21 34.85226 -82.98199 27881 ft 383 kts 227°
2026-05-04 00:21 34.83300 -83.00419 27385 ft 380 kts 227°
2026-05-04 00:22 34.81388 -83.02622 26887 ft 377 kts 227°
2026-05-04 00:22 34.79494 -83.04806 26391 ft 374 kts 227°
2026-05-04 00:22 34.77608 -83.06983 25889 ft 371 kts 227°
2026-05-04 00:22 34.75739 -83.09139 25406 ft 369 kts 227°
2026-05-04 00:23 34.73885 -83.11280 24936 ft 366 kts 227°
2026-05-04 00:23 34.72044 -83.13407 24489 ft 363 kts 227°
2026-05-04 00:23 34.70241 -83.15486 24049 ft 360 kts 227°
2026-05-04 00:23 34.68425 -83.17576 23578 ft 358 kts 227°
2026-05-04 00:24 34.66614 -83.19652 23033 ft 357 kts 227°
2026-05-04 00:24 34.64813 -83.21718 22499 ft 354 kts 227°
2026-05-04 00:24 34.63019 -83.23776 21987 ft 353 kts 227°
2026-05-04 00:24 34.61239 -83.25815 21490 ft 351 kts 227°
2026-05-04 00:25 34.59472 -83.27846 21005 ft 349 kts 227°
2026-05-04 00:25 34.57739 -83.29841 20540 ft 347 kts 227°
2026-05-04 00:25 34.55987 -83.31852 20063 ft 346 kts 227°
2026-05-04 00:25 34.54242 -83.33851 19579 ft 345 kts 227°
2026-05-04 00:26 34.52503 -83.35850 19134 ft 344 kts 227°
2026-05-04 00:26 34.50775 -83.37840 18697 ft 342 kts 227°
2026-05-04 00:26 34.49052 -83.39824 18256 ft 340 kts 227°
2026-05-04 00:26 34.47338 -83.41796 17764 ft 339 kts 227°
2026-05-04 00:27 34.45630 -83.43757 17287 ft 337 kts 227°
2026-05-04 00:27 34.43926 -83.45707 16828 ft 336 kts 227°
2026-05-04 00:27 34.42234 -83.47644 16389 ft 334 kts 227°
2026-05-04 00:27 34.40548 -83.49574 15960 ft 333 kts 226°
2026-05-04 00:28 34.38869 -83.51495 15530 ft 331 kts 226°
2026-05-04 00:28 34.37192 -83.53411 15117 ft 330 kts 226°
2026-05-04 00:28 34.35528 -83.55315 14695 ft 329 kts 226°
2026-05-04 00:28 34.33888 -83.57190 14290 ft 328 kts 226°
2026-05-04 00:29 34.32230 -83.59084 13879 ft 327 kts 226°
2026-05-04 00:29 34.30581 -83.60966 13436 ft 325 kts 226°
2026-05-04 00:29 34.28937 -83.62843 12997 ft 324 kts 226°
2026-05-04 00:29 34.27277 -83.64683 12571 ft 323 kts 225°
2026-05-04 00:30 34.25597 -83.66484 12145 ft 322 kts 224°
2026-05-04 00:30 34.23914 -83.68261 11974 ft 321 kts 224°
2026-05-04 00:30 34.22222 -83.70041 12008 ft 323 kts 224°
2026-05-04 00:30 34.20528 -83.71826 12008 ft 323 kts 224°
2026-05-04 00:31 34.18835 -83.73617 12008 ft 323 kts 224°
2026-05-04 00:31 34.17145 -83.75407 12007 ft 323 kts 224°
2026-05-04 00:31 34.15452 -83.77201 12010 ft 323 kts 224°
2026-05-04 00:31 34.13783 -83.78968 12009 ft 323 kts 224°
2026-05-04 00:32 34.12125 -83.80723 11998 ft 309 kts 224°
2026-05-04 00:32 34.10533 -83.82405 12008 ft 301 kts 224°
2026-05-04 00:32 34.08965 -83.84066 12001 ft 299 kts 224°
2026-05-04 00:32 34.07409 -83.85732 12001 ft 299 kts 225°
2026-05-04 00:33 34.05867 -83.87392 11689 ft 296 kts 225°
2026-05-04 00:33 34.02799 -83.90695 10923 ft 295 kts 225°
2026-05-04 00:33 34.01272 -83.92334 10556 ft 294 kts 224°
2026-05-04 00:34 33.99747 -83.93972 10187 ft 293 kts 224°
2026-05-04 00:34 33.98141 -83.95478 9810 ft 294 kts 212°
2026-05-04 00:34 33.96254 -83.96432 9426 ft 295 kts 196°
2026-05-04 00:34 33.94242 -83.96718 9051 ft 296 kts 180°
2026-05-04 00:35 33.92187 -83.96620 8671 ft 294 kts 179°
2026-05-04 00:35 33.90147 -83.96528 8309 ft 292 kts 179°
2026-05-04 00:35 33.88123 -83.96444 7956 ft 290 kts 179°
2026-05-04 00:35 33.86114 -83.96362 7607 ft 288 kts 179°
2026-05-04 00:36 33.84121 -83.96280 7261 ft 285 kts 179°
2026-05-04 00:36 33.82142 -83.96198 6915 ft 283 kts 179°
2026-05-04 00:36 33.80182 -83.96116 6553 ft 281 kts 179°
2026-05-04 00:36 33.78232 -83.96036 6184 ft 279 kts 179°
2026-05-04 00:37 33.76299 -83.96013 5822 ft 276 kts 186°
2026-05-04 00:37 33.74429 -83.96435 5454 ft 272 kts 199°
2026-05-04 00:37 33.72681 -83.97269 5100 ft 269 kts 204°
2026-05-04 00:37 33.70986 -83.98115 4980 ft 256 kts 204°
2026-05-04 00:38 33.69388 -83.98904 4987 ft 240 kts 204°
2026-05-04 00:38 33.67899 -83.99654 4985 ft 224 kts 208°
2026-05-04 00:38 33.66669 -84.00658 4991 ft 214 kts 225°
2026-05-04 00:38 33.65723 -84.02020 4995 ft 212 kts 240°
2026-05-04 00:39 33.65133 -84.03624 4920 ft 206 kts 257°
2026-05-04 00:39 33.64944 -84.05285 4750 ft 198 kts 268°
2026-05-04 00:39 33.64912 -84.06930 4520 ft 194 kts 270°
2026-05-04 00:39 33.64910 -84.08519 4347 ft 187 kts 270°
2026-05-04 00:40 33.64913 -84.10077 4096 ft 186 kts 270°
2026-05-04 00:40 33.64917 -84.11620 4008 ft 185 kts 270°
2026-05-04 00:40 33.64921 -84.13144 4011 ft 186 kts 271°
2026-05-04 00:40 33.64924 -84.14698 3995 ft 185 kts 270°
2026-05-04 00:41 33.64927 -84.16247 3995 ft 185 kts 270°
2026-05-04 00:41 33.64931 -84.17796 3999 ft 186 kts 270°
2026-05-04 00:41 33.64933 -84.19347 4012 ft 186 kts 270°
2026-05-04 00:41 33.64936 -84.20899 4013 ft 186 kts 270°
2026-05-04 00:42 33.64939 -84.22453 3941 ft 186 kts 270°
2026-05-04 00:42 33.64941 -84.24007 3753 ft 186 kts 270°
2026-05-04 00:42 33.64943 -84.25549 3525 ft 184 kts 270°
2026-05-04 00:42 33.64945 -84.27080 3288 ft 183 kts 270°
2026-05-04 00:43 33.64947 -84.28584 3054 ft 178 kts 270°
2026-05-04 00:43 33.64948 -84.30016 2825 ft 166 kts 271°
2026-05-04 00:43 33.64949 -84.31386 2602 ft 161 kts 271°
2026-05-04 00:43 33.64950 -84.32683 2401 ft 151 kts 271°
2026-05-04 00:44 33.64951 -84.33927 2196 ft 148 kts 271°
2026-05-04 00:44 33.64952 -84.35167 2000 ft 148 kts 271°
2026-05-04 00:44 33.64952 -84.36375 1806 ft 146 kts 271°
2026-05-04 00:44 33.64953 -84.37598 1596 ft 146 kts 271°
2026-05-04 00:45 33.64953 -84.38816 1392 ft 146 kts 270°
2026-05-04 00:45 33.64954 -84.40036 1202 ft 146 kts 270°
2026-05-04 00:45 33.64953 -84.41249 1049 ft 145 kts 270°
2026-05-04 00:45 33.64954 -84.42291 1036 ft 87 kts 270°
2026-05-04 00:46 33.64954 -84.42791 1035 ft 49 kts 270°
2026-05-04 00:46 33.64946 -84.43091 1035 ft 27 kts 260°
2026-05-04 00:46 33.64889 -84.43276 1035 ft 17 kts 242°
2026-05-04 00:46 33.64849 -84.43391 1035 ft 14 kts 258°
2026-05-04 00:47 33.64845 -84.43493 1036 ft 10 kts 270°
2026-05-04 00:47 33.64820 -84.43553 1036 ft 8 kts 204°
2026-05-04 00:47 33.64772 -84.43568 1036 ft 7 kts 198°
2026-05-04 00:47 33.64734 -84.43591 1036 ft 6 kts 213°
2026-05-04 00:48 33.64681 -84.43630 1035 ft 11 kts 211°
2026-05-04 00:48 33.64618 -84.43670 1035 ft 10 kts 201°
2026-05-04 00:48 33.64560 -84.43660 1036 ft 8 kts 143°
2026-05-04 00:48 33.64541 -84.43609 1036 ft 8 kts 95°
2026-05-04 00:49 33.64542 -84.43510 1036 ft 12 kts 89°
2026-05-04 00:49 33.64542 -84.43434 1036 ft 8 kts 90°
2026-05-04 00:49 33.64542 -84.43393 1036 ft 7 kts 90°
2026-05-04 00:49 33.64542 -84.43342 1036 ft 6 kts 89°
2026-05-04 00:50 33.64542 -84.43258 1036 ft 13 kts 90°
2026-05-04 00:50 33.64542 -84.43161 1036 ft 10 kts 91°
2026-05-04 00:50 33.64505 -84.43102 1036 ft 9 kts 160°
2026-05-04 00:50 33.64450 -84.43112 1036 ft 8 kts 199°
2026-05-04 00:51 33.64402 -84.43131 1036 ft 7 kts 195°
2026-05-04 00:51 33.64359 -84.43132 1035 ft 6 kts 179°
2026-05-04 00:51 33.64322 -84.43132 1035 ft 6 kts 180°
2026-05-04 00:51 33.64267 -84.43132 1035 ft 8 kts 180°
2026-05-04 00:52 33.64215 -84.43132 1035 ft 7 kts 180°
2026-05-04 00:52 33.64157 -84.43134 1035 ft 7 kts 189°
2026-05-04 00:52 33.64150 -84.43171 1035 ft 4 kts 281°
2026-05-04 00:52 33.64151 -84.43198 1035 ft 1 kts 271°
2026-05-04 00:53 33.64151 -84.43200 1035 ft 1 kts 270°
2026-05-04 00:53 33.64151 -84.43203 1035 ft 0 kts 270°